Weather History for Natchez, MS

Change the Weather History Date:

Sunday, April 14, 2013

  Actual Average Record
Temperature  
Mean Temperature 66 °F -  
Max Temperature 75 °F 76 °F 88 °F (1972)
Min Temperature 57 °F 57 °F 30 °F (1959)
Cooling Degree Days 1    
Growing Degree Days 16 (Base 50)    
Moisture  
Dew Point 59 °F    
Average Humidity 81    
Maximum Humidity 94    
Minimum Humidity 63    
Precipitation  
Precipitation 0.91 in - - ()
Sea Level Pressure  
Sea Level Pressure 29.79 in    
Wind  
Wind Speed 7 mph (SSE)    
Max Wind Speed 22 mph    
Max Gust Speed 30 mph    
Visibility 10 miles    
Events Thunderstorm    
Averages and records for this station are not official NWS values.
T = Trace of Precipitation, MM = Missing Value Source: NWS Daily Summary

Daily Weather History Graph

Daily Weather History Graph

Search for Another Location

Airport:

Trip Planner

Search our weather history database for the weather conditions in past years. The results will help you decide how hot, cold, wet, or windy it might be!

Date:

Astronomy

Apr. 14, 2013 Rise Set
Actual Time 6:37 AM CDT 7:33 PM CDT
Civil Twilight 6:12 AM CDT 7:58 PM CDT
Nautical Twilight 5:43 AM CDT 8:28 PM CDT
Astronomical Twilight 5:12 AM CDT 8:58 PM CDT
Moon 9:25 AM CDT (4/14) 11:36 PM CDT (4/14)
Length of Visible Light 13h 45m
Length of Day
12h 55m
Waxing Crescent, 17% of the Moon is Illuminated
Apr 14
Waxing Crescent
Apr 18
First Quarter
Apr 25
Full
May 2
Last Quarter
May 9
New

Hourly Weather History & Observations

Time (CDT) Temp. Dew Point Humidity Pressure Visibility Wind Dir Wind Speed Gust Speed Precip Events Conditions
12:15 AM 62.6 °F 50.0 °F 63% 29.86 in 10.0 mi Calm Calm - N/A   Unknown
12:35 AM 60.8 °F 51.8 °F 72% 29.86 in 10.0 mi Calm Calm - N/A   Unknown
12:55 AM 60.8 °F 51.8 °F 72% 29.87 in 9.0 mi Calm Calm - N/A   Unknown
1:15 AM 60.8 °F 51.8 °F 72% 29.87 in 10.0 mi Calm Calm - N/A   Unknown
1:35 AM 60.8 °F 51.8 °F 72% 29.84 in 10.0 mi ESE 5.8 mph - N/A   Unknown
1:55 AM 62.6 °F 51.8 °F 68% 29.82 in 10.0 mi East 10.4 mph - N/A   Unknown
2:15 AM 62.6 °F 53.6 °F 72% 29.82 in 10.0 mi South 3.5 mph - N/A   Unknown
2:35 AM 60.8 °F 53.6 °F 77% 29.85 in 10.0 mi SSE 19.6 mph 25.3 mph N/A Thunderstorm Unknown
2:55 AM 60.8 °F 53.6 °F 77% 29.85 in 10.0 mi South 8.1 mph 16.1 mph 0.02 in Thunderstorm Thunderstorm
3:16 AM 59.0 °F 55.4 °F 88% 29.83 in 10.0 mi SE 13.8 mph 19.6 mph 0.02 in Thunderstorm Thunderstorm
3:35 AM 57.2 °F 55.4 °F 94% 29.82 in 10.0 mi SE 21.9 mph 29.9 mph 0.06 in Thunderstorm Overcast
3:55 AM 57.2 °F 55.4 °F 94% 29.83 in 10.0 mi SE 13.8 mph 23.0 mph 0.13 in   Overcast
4:15 AM 57.2 °F 55.4 °F 94% 29.85 in 10.0 mi ESE 10.4 mph 16.1 mph 0.06 in   Overcast
4:35 AM 57.2 °F 55.4 °F 94% 29.84 in 10.0 mi ESE 11.5 mph 16.1 mph 0.15 in Thunderstorm Overcast
4:55 AM 57.2 °F 55.4 °F 94% 29.84 in 10.0 mi ESE 12.7 mph 18.4 mph 0.25 in Thunderstorm Thunderstorm
5:15 AM 57.2 °F 55.4 °F 94% 29.79 in 10.0 mi East 17.3 mph 24.2 mph 0.10 in Thunderstorm Mostly Cloudy
5:35 AM 57.2 °F 55.4 °F 94% 29.79 in 10.0 mi ESE 16.1 mph - 0.18 in Thunderstorm Mostly Cloudy
5:55 AM 57.2 °F 55.4 °F 94% 29.79 in 10.0 mi ESE 15.0 mph 21.9 mph 0.24 in Thunderstorm Overcast
6:15 AM 59.0 °F 57.2 °F 94% 29.77 in 10.0 mi East 20.7 mph 25.3 mph 0.05 in   Overcast
6:35 AM 60.8 °F 57.2 °F 88% 29.75 in 10.0 mi ESE 20.7 mph 28.8 mph 0.08 in   Mostly Cloudy
6:55 AM 60.8 °F 57.2 °F 88% 29.74 in 10.0 mi SE 16.1 mph 25.3 mph 0.09 in   Mostly Cloudy
7:15 AM 60.8 °F 57.2 °F 88% 29.78 in 10.0 mi ESE 13.8 mph 21.9 mph 0.01 in   Mostly Cloudy
7:35 AM 60.8 °F 57.2 °F 88% 29.80 in 10.0 mi SE 8.1 mph - 0.03 in Thunderstorm Overcast
7:55 AM 62.6 °F 57.2 °F 82% 29.78 in 10.0 mi SE 17.3 mph - 0.07 in Thunderstorm Mostly Cloudy
8:15 AM 62.6 °F 57.2 °F 82% 29.75 in 10.0 mi ESE 17.3 mph 29.9 mph 0.01 in Thunderstorm Mostly Cloudy
8:35 AM 62.6 °F 57.2 °F 82% 29.80 in 10.0 mi SE 9.2 mph - 0.01 in Thunderstorm Mostly Cloudy
8:55 AM 62.6 °F 57.2 °F 82% 29.81 in 10.0 mi SE 11.5 mph 16.1 mph 0.02 in Thunderstorm Unknown
9:15 AM 62.6 °F 57.2 °F 82% 29.83 in 10.0 mi South 11.5 mph - 0.02 in Thunderstorm Thunderstorm
9:35 AM 62.6 °F 57.2 °F 82% 29.81 in 10.0 mi East 6.9 mph - 0.09 in   Mostly Cloudy
9:55 AM 62.6 °F 57.2 °F 82% 29.81 in 10.0 mi East 4.6 mph - 0.09 in   Unknown
10:15 AM 62.6 °F 59.0 °F 88% 29.81 in 10.0 mi ESE 4.6 mph - N/A   Unknown
10:35 AM 64.4 °F 60.8 °F 88% 29.82 in 10.0 mi SE 5.8 mph - N/A   Unknown
10:55 AM 64.4 °F 60.8 °F 88% 29.81 in 10.0 mi ESE 8.1 mph - N/A   Unknown
11:15 AM 64.4 °F 60.8 °F 88% 29.81 in 10.0 mi SE 6.9 mph - N/A   Unknown
11:35 AM 66.2 °F 60.8 °F 83% 29.80 in 10.0 mi SE 9.2 mph - N/A   Unknown
11:55 AM 66.2 °F 60.8 °F 83% 29.79 in 10.0 mi SSE 8.1 mph - N/A   Unknown
12:15 PM 69.8 °F 62.6 °F 78% 29.79 in 10.0 mi ESE 8.1 mph - N/A   Unknown
12:35 PM 69.8 °F 60.8 °F 73% 29.79 in 10.0 mi ESE 3.5 mph - N/A   Unknown
12:55 PM 69.8 °F 60.8 °F 73% 29.80 in 10.0 mi SSW 3.5 mph - N/A   Unknown
1:15 PM 71.6 °F 60.8 °F 69% 29.79 in 10.0 mi SSW 5.8 mph - N/A   Unknown
1:35 PM 69.8 °F 62.6 °F 78% 29.80 in 10.0 mi WSW 6.9 mph - N/A   Unknown
1:55 PM 69.8 °F 62.6 °F 78% 29.79 in 10.0 mi SSW 3.5 mph - N/A   Unknown
2:15 PM 69.8 °F 62.6 °F 78% 29.79 in 10.0 mi West 3.5 mph - N/A   Unknown
2:35 PM 69.8 °F 62.6 °F 78% 29.78 in 10.0 mi WSW 8.1 mph - N/A   Unknown
2:55 PM 71.6 °F 62.6 °F 73% 29.76 in 10.0 mi South 6.9 mph - N/A   Unknown
3:15 PM 71.6 °F 62.6 °F 73% 29.75 in 10.0 mi SSE 4.6 mph - N/A   Unknown
3:35 PM 73.4 °F 64.4 °F 73% 29.74 in 10.0 mi SSE 6.9 mph - N/A   Unknown
3:55 PM 73.4 °F 62.6 °F 69% 29.73 in 10.0 mi SSE 4.6 mph - N/A   Unknown
4:15 PM 73.4 °F 62.6 °F 69% 29.73 in 10.0 mi South 8.1 mph - N/A   Unknown
4:35 PM 73.4 °F 62.6 °F 69% 29.74 in 10.0 mi South 5.8 mph - N/A   Unknown
4:55 PM 73.4 °F 62.6 °F 69% 29.74 in 10.0 mi South 6.9 mph - N/A   Unknown
5:15 PM 75.2 °F 62.6 °F 65% 29.73 in 10.0 mi South 4.6 mph - N/A   Unknown
5:35 PM 75.2 °F 62.6 °F 65% 29.73 in 10.0 mi SSW 8.1 mph - N/A   Unknown
5:55 PM 75.2 °F 62.6 °F 65% 29.74 in 10.0 mi South 5.8 mph - N/A   Unknown
6:15 PM 73.4 °F 62.6 °F 69% 29.74 in 10.0 mi SSE 8.1 mph - N/A   Unknown
6:35 PM 73.4 °F 62.6 °F 69% 29.74 in 10.0 mi SE 6.9 mph - N/A   Unknown
6:55 PM 73.4 °F 62.6 °F 69% 29.74 in 10.0 mi SSE 8.1 mph - N/A   Unknown
7:15 PM 71.6 °F 62.6 °F 73% 29.74 in 10.0 mi SSE 9.2 mph - N/A   Unknown
7:35 PM 69.8 °F 62.6 °F 78% 29.74 in 10.0 mi SSE 6.9 mph - N/A   Unknown
7:55 PM 68.0 °F 62.6 °F 83% 29.75 in 10.0 mi SSE 5.8 mph - N/A   Unknown
8:15 PM 66.2 °F 62.6 °F 88% 29.76 in 10.0 mi SSE 5.8 mph - N/A   Unknown
8:35 PM 66.2 °F 62.6 °F 88% 29.76 in 10.0 mi SSE 4.6 mph - N/A   Unknown
8:55 PM 66.2 °F 62.6 °F 88% 29.77 in 10.0 mi SSE 3.5 mph - N/A   Unknown
9:15 PM 64.4 °F 60.8 °F 88% 29.77 in 10.0 mi SSE 5.8 mph - N/A   Unknown
9:35 PM 64.4 °F 60.8 °F 88% 29.78 in 10.0 mi SSE 4.6 mph - N/A   Unknown
9:55 PM 64.4 °F 62.6 °F 94% 29.79 in 10.0 mi SSE 3.5 mph - N/A   Unknown
10:15 PM 64.4 °F 60.8 °F 88% 29.79 in 10.0 mi Calm Calm - N/A   Unknown
10:35 PM 64.4 °F 60.8 °F 88% 29.80 in 10.0 mi Calm Calm - N/A   Unknown
10:55 PM 62.6 °F 60.8 °F 94% 29.80 in 10.0 mi South 3.5 mph - N/A   Unknown
11:15 PM 62.6 °F 60.8 °F 94% 29.80 in 10.0 mi SSE 5.8 mph - N/A   Unknown
11:35 PM 62.6 °F 60.8 °F 94% 29.80 in 10.0 mi SSE 6.9 mph - N/A   Unknown
11:55 PM 64.4 °F 60.8 °F 88% 29.80 in 10.0 mi SSE 8.1 mph - N/A   Unknown